Flag for China Weather past 2 weeks in Tsingtao, Shandong, China

Now
66 °F

Fog.


Feels Like: 66 °F
Forecast: 55 / 65 °F
Wind: 8 mph from Northeast

Location: Qingdao Airport

Current Time: Oct 20, 2014 at 4:37:38 PM

Latest Report: Oct 20, 2014 at 4:00 PM


Visibility: 3 mi

Pressure: 29.98 "Hg

Humidity: 78%

Dew point: 59 °F

Location of TsingtaoLocation

Historic Weather in Tsingtao — Graph

°F

Tsingtao temperature yesterday

Maximum temperature yesterday: 72 °F (at 11:00 AM)
Minimum temperature yesterday: 63 °F (at 5:00 PM)
Average temperature yesterday: 66 °F

Past Weeks' High & Low Weather Summary

 TemperatureHumidityPressure
High79 °F (Oct 10, 1:00 PM)94% (Oct 6, 6:00 AM)30.30 "Hg (Oct 6, 6:00 AM)
Low43 °F (Oct 14, 5:00 AM)17% (Oct 10, 1:00 PM)29.95 "Hg (Oct 15, 2:00 PM)
Average62 °F64%30.14 "Hg
* Reported Oct 5 3:00 PM — Oct 20 3:00 PM, Tsingtao, Weather by CustomWeather, © 2014

Note: Actual official high and low records may vary slightly from our data, if they occured in-between our weather recording intervals... More about our weather records

Advertising

Tsingtao weather history for previous 24 hours

 ConditionsComfort  
Time TempWeatherWind HumidityBarometerVisibility
3:00 PM
Oct 20
66 °FFog.6 mph73%29.98 "Hg3 mi
2:00 PM66 °FFog.6 mph73%29.98 "Hg3 mi
1:00 PM66 °FFog.8 mph78%29.98 "Hg3 mi
11:00 AM64 °FFog.8 mph83%30.01 "Hg2 mi
10:00 AM64 °FFog.3 mph83%30.04 "Hg1 mi
9:00 AM63 °FFog.3 mph88%30.01 "Hg1 mi
8:00 AM63 °FFog.6 mph88%30.01 "Hg1 mi
7:00 AM61 °FFog.3 mph94%30.01 "Hg1 mi
6:00 AM61 °FFog.3 mph94%29.98 "Hg1 mi
5:00 AM63 °FFog.1 mph94%29.98 "Hg1 mi
4:00 AM63 °FFog.No wind94%29.98 "Hg1 mi
3:00 AM63 °FFog.No wind94%29.98 "Hg1 mi
2:00 AM63 °FFog.1 mph94%29.98 "Hg1 mi
1:00 AM63 °FLight rain. Fog.3 mph94%29.98 "Hg2 mi
12:00 AM63 °FLight rain. Fog.No wind94%29.98 "Hg2 mi
11:00 PM
Oct 19
63 °FLight rain. Overcast.1 mph94%29.98 "Hg4 mi
10:00 PM63 °FLight rain. Fog.1 mph94%30.01 "Hg2 mi
9:00 PM63 °FLight rain. Overcast.No wind94%30.01 "HgN/A
8:00 PM63 °FLight rain. Overcast.1 mph94%30.01 "Hg4 mi
7:00 PM63 °FLight rain. Fog.1 mph88%30.01 "Hg3 mi
6:00 PM63 °FLight rain. Mostly cloudy.6 mph88%30.01 "HgN/A
5:00 PM63 °FLight rain. Fog.8 mph88%30.01 "Hg3 mi
4:00 PM64 °FLight rain. More clouds than sun.3 mph78%29.98 "HgN/A
Weather by CustomWeather, © 2014

See weather overviewHow to use our weather pages